Find Tianhui-7

NORAD ID: 67300 Int'l Des: 2025-314 Owner: GCDX Country: CN operational
LEOCIRCULARRETROGRADESSO

当前视图

正在加载3D地球...

关于 Tianhui-7

正在加载描述...

即将过境

Passes for default location (London). Set your location on the main map for personalized predictions.

高度历史

Loading altitude history...

两行轨道根数

1 67300U 25314A 26146.45656427 .00006437 00000-0 25567-3 0 9997
2 67300 97.4025 222.3340 0003668 41.8357 318.3161 15.25664570 22471
Epoch: May 26, 2026 • Age: 9 hours

当前状态

高度 517.6 km
速度 7.60 km/s
星下点 -76.52°S, 70.05°E
发射日期 Dec 30, 2025
运行时间 0.4 years
类型 other

技术详情

分类 Payload
质量 1000.00 kg
干质量 1000.00 kg
总质量 1000.00 kg
长度 1.00 m
直径 1.00 m
跨度 3.00 m
形状 Box + 2 Pan
制造商 CAST
平台类型 CAST-2000
阶段状态 In Orbit
所有者/国家 GCDX/CN

Most Searched